Vertical_Velocity
-1 -1 1 -0 -1 -1 -1 -1 0 -1 -1 -1 -1 -2 -3 -1 -0 0 -1 -1 0 1 -0 -2 -1 -3 -1 -2 -2 -3 -3 -2 -1
1 -0 0 -1 0 -1 1 -2 -2 -0 -1 -2 -2 -2 -3 -0 -1 -0 -1 -1 -0 -0 -1 -1 -2 -1 -2 -2 -2 -1 -2 -2 -3
-1 1 0 0 0 -1 -1 -2 -2 -1 -0 -0 0 -2 -1 -2 -2 -1 1 -1 -2 -1 -1 -2 -1 -0 -0 0 -1 -1 -1 -2 -1
-0 1 2 3 1 1 3 1 1 1 1 1 1 1 0 -0 1 0 0 1 -1 -1 0 1 1 1 0 0 0 0 0 -1 -1
-0 0 3 0 -1 0 1 -0 1 1 2 2 2 3 0 -1 -1 0 -1 1 0 1 1 1 1 1 2 1 0 1 2 1 -1
-0 0 0 -0 -0 -1 0 0 0 0 0 0 2 2 0 -0 -2 -0 -0 1 1 0 1 1 -0 1 0 1 1 0 1 0 1
-0 0 -1 1 -0 0 -2 -0 -0 0 1 -0 -0 1 -1 -1 -1 0 -0 1 1 0 0 1 1 1 1 2 1 1 2 1 1
2 -1 1 -0 -0 -1 -0 -1 -1 -2 -1 -2 0 -1 0 1 1 1 0 0 0 2 2 2 1 1 1 1 1 1 1 0 0
-0 1 -0 -2 1 -1 1 0 -1 0 -0 1 0 1 0 1 1 2 -1 -0 0 0 0 0 0 1 0 1 1 1 1 1 2
-0 0 0 -2 0 -1 -2 -1 0 0 1 -0 1 -1 -1 -0 0 0 -1 -1 0 -0 0 0 0 0 0 -1 -1 0 0 1 1
1 1 -1 -1 2 2 2 0 0 0 0 -0 0 -0 1 2 0 1 2 -1 -1 -1 0 -0 -1 -2 -1 0 -0 -0 1 1 1
3 -0 -2 -1 -1 -0 -2 -2 1 2 1 1 -1 1 -1 0 1 0 1 -1 -1 -3 -1 -0 1 0 -0 -0 1 1 -1 -2 -2
-1 1 -1 1 0 -0 -1 -2 0 0 -3 -1 -1 1 -0 -1 -1 0 -1 -0 1 1 -2 -3 -1 -1 -1 -2 -2 -0 -0 -2 -1
2 1 -0 1 -1 -2 -1 -1 0 -0 -3 1 4 -2 1 -0 -0 -0 -3 -2 -2 -1 0 -1 -3 0 2 1 1 1 1 1 -1
2 2 1 1 -0 -1 -0 1 -2 -1 -2 1 1 0 3 2 -2 -2 -2 -1 -1 -3 -0 2 2 -3 -3 -2 -3 -0 -0 -2 -1
-0 0 0 -0 1 1 1 2 3 -0 -6 -3 -1 2 0 -1 -5 2 4 2 -0 0 2 -2 -1 4 1 -5 -4 -2 -0 1 2
1 0 1 1 -1 -4 -4 -3 2 0 -7 -8 -6 -0 22 3 10 4 4 5 1 0 -3 -4 -3 -1 -1 6 2 -4 -6 -4 -0
-2 -2 -3 -3 -1 0 -1 -1 -4 5 10 -4 -21 -5 2 -9 10 9 3 4 7 9 6 5 6 -1 -7 -4 -1 4 0 -3 -4
-2 -1 0 1 1 2 4 2 -0 -4 1 10 7 -10 -25 -17 -9 19 14 4 8 8 9 11 10 7 4 -3 -5 2 3 3 4
2 -0 -2 -3 -2 -3 -2 -0 -3 -5 -5 -5 0 7 10 1 -26 -35 9 -3 1 0 2 4 5 14 12 5 1 4 3 3 1
Height
5860 5859 5858 5857 5857 5857 5856 5855 5854 5853 5852 5851 5849 5847 5845 5843 5841 5839 5838 5836 5834 5832 5830 5829 5828 5826 5825 5823 5821 5819 5817 5814 5812
5856 5856 5854 5853 5853 5853 5853 5852 5851 5850 5849 5847 5846 5844 5842 5840 5838 5836 5835 5833 5831 5829 5827 5826 5824 5822 5820 5818 5817 5814 5811 5809 5807
5853 5852 5851 5850 5850 5849 5849 5849 5847 5846 5845 5843 5842 5840 5837 5836 5834 5832 5831 5829 5827 5825 5823 5821 5819 5817 5815 5813 5810 5808 5806 5804 5801
5848 5848 5848 5847 5847 5847 5846 5844 5843 5842 5840 5839 5837 5834 5832 5831 5829 5827 5826 5824 5822 5820 5818 5816 5814 5811 5809 5807 5805 5802 5800 5798 5795
5845 5844 5844 5844 5843 5842 5840 5839 5837 5836 5834 5832 5830 5828 5826 5824 5822 5820 5819 5817 5815 5814 5812 5809 5807 5805 5803 5800 5798 5796 5793 5790 5788
5841 5840 5839 5838 5837 5836 5834 5833 5831 5829 5827 5825 5823 5820 5818 5817 5813 5811 5809 5807 5806 5804 5802 5800 5799 5797 5795 5792 5790 5788 5785 5783 5780
5835 5834 5833 5832 5831 5829 5827 5826 5824 5821 5818 5816 5814 5811 5810 5807 5804 5801 5799 5797 5795 5793 5792 5790 5789 5787 5785 5782 5780 5778 5775 5773 5771
5829 5828 5827 5826 5824 5822 5819 5817 5814 5811 5808 5806 5803 5801 5799 5796 5794 5792 5789 5787 5785 5783 5781 5779 5777 5775 5773 5771 5769 5767 5765 5763 5761
5823 5822 5820 5818 5816 5813 5810 5807 5803 5800 5798 5795 5793 5791 5788 5786 5784 5782 5779 5776 5774 5771 5770 5767 5765 5762 5760 5758 5756 5754 5753 5751 5749
5817 5814 5811 5808 5805 5803 5800 5797 5794 5792 5789 5787 5784 5781 5779 5776 5774 5771 5768 5765 5763 5760 5757 5754 5752 5750 5748 5746 5743 5741 5740 5738 5737
5808 5804 5801 5798 5796 5794 5791 5788 5786 5784 5781 5777 5774 5772 5769 5766 5763 5760 5758 5754 5751 5748 5746 5743 5739 5737 5734 5733 5731 5728 5726 5725 5723
5798 5796 5793 5790 5787 5784 5782 5779 5777 5775 5772 5769 5765 5763 5759 5756 5753 5750 5747 5744 5740 5736 5733 5731 5727 5724 5721 5719 5717 5715 5713 5712 5710
5792 5789 5786 5783 5779 5776 5773 5771 5769 5767 5763 5760 5757 5753 5749 5745 5741 5738 5735 5731 5728 5725 5720 5716 5714 5711 5709 5706 5703 5701 5699 5697 5696
5784 5781 5778 5776 5773 5769 5767 5764 5761 5757 5753 5750 5747 5743 5739 5734 5730 5726 5721 5717 5714 5711 5707 5703 5698 5694 5692 5688 5686 5684 5682 5680 5679
5776 5773 5771 5768 5765 5761 5758 5754 5750 5746 5742 5739 5736 5732 5729 5724 5719 5713 5709 5704 5700 5696 5691 5687 5684 5679 5675 5672 5669 5667 5666 5664 5662
5768 5766 5763 5759 5756 5752 5748 5744 5740 5735 5729 5726 5724 5721 5716 5710 5705 5702 5697 5691 5685 5680 5676 5671 5667 5664 5659 5655 5652 5650 5648 5646 5646
5761 5757 5754 5750 5745 5741 5736 5732 5728 5723 5717 5710 5706 5704 5705 5699 5695 5688 5682 5676 5671 5665 5659 5654 5648 5644 5641 5637 5633 5630 5628 5627 5626
5752 5748 5744 5740 5736 5731 5726 5721 5715 5710 5705 5696 5687 5684 5682 5678 5676 5672 5666 5661 5655 5649 5643 5637 5630 5624 5619 5616 5614 5610 5608 5606 5606
5744 5739 5735 5730 5726 5721 5715 5709 5702 5695 5689 5682 5674 5665 5657 5651 5654 5650 5643 5636 5630 5626 5621 5614 5609 5602 5596 5592 5590 5588 5584 5583 5583
5735 5730 5725 5720 5714 5707 5700 5692 5684 5676 5668 5660 5652 5645 5636 5626 5619 5628 5619 5614 5605 5600 5595 5589 5584 5576 5570 5567 5566 5563 5562 5561 5558